Indianapolis, IN

12:07 AM EDT on March 27, 2017 (GMT -0400)
Indianapolis Terry

Weather History for KTYQ - January, 2013

Change the Weather History Date:

Thursday, January 10, 2013

  Actual Average (KEYE) Record (KEYE)
Temperature  
Mean Temperature 36 °F -  
Max Temperature 44 °F 33 °F 54 °F (2017)
Min Temperature 27 °F 19 °F -5 °F (1999)
Degree Days  
Heating Degree Days 30    
Moisture  
Dew Point 30 °F    
Average Humidity 78    
Maximum Humidity 89    
Minimum Humidity 56    
Precipitation  
Precipitation 0.09 in - - ()
Sea Level Pressure  
Sea Level Pressure 30.33 in    
Wind  
Wind Speed 5 mph (ESE)    
Max Wind Speed 15 mph    
Max Gust Speed 18 mph    
Visibility 9 miles    
Events Rain    
Averages and records for this station are not official NWS values.
T = Trace of Precipitation, MM = Missing Value Source: NWS Daily Summary

Daily Weather History Graph

Daily Weather History Graph

Search for Another Location

Airport or City:

Trip Planner

Search our weather history database for the weather conditions in past years. The results will help you decide how hot, cold, wet, or windy it might be!

Date:

Astronomy

Jan. 10, 2013 Rise Set
Actual Time 8:06 AM EST 5:39 PM EST
Civil Twilight 7:36 AM EST 6:09 PM EST
Nautical Twilight 7:02 AM EST 6:42 PM EST
Astronomical Twilight 6:30 AM EST 7:15 PM EST
Moon 6:45 AM EST (1/10) 4:46 PM EST (1/10)
Length of Visible Light 10h 32m
Length of Day
9h 32m
Waning Crescent, 2% of the Moon is Illuminated
Jan 10
Waning Crescent
Jan 11
New
Jan 18
First Quarter
Jan 26
Full
Feb 3
Last Quarter

Hourly Weather History & Observations

Time (EST) Temp. Windchill Dew Point Humidity Pressure Visibility Wind Dir Wind Speed Gust Speed Precip Events Conditions
12:15 AM 30.0 °F - 26.1 °F 85% 30.50 in 10.0 mi Calm Calm - N/A   Clear
12:35 AM 29.3 °F - 25.7 °F 86% 30.50 in 10.0 mi Calm Calm - N/A   Clear
12:55 AM 28.6 °F - 25.3 °F 88% 30.50 in 10.0 mi Calm Calm - N/A   Clear
1:15 AM 29.3 °F 24.3 °F 26.1 °F 88% 30.50 in 10.0 mi North 4.6 mph - N/A   Clear
1:35 AM 28.9 °F 25.2 °F 25.5 °F 87% 30.50 in 10.0 mi NNE 3.5 mph - N/A   Clear
1:55 AM 29.1 °F 24.1 °F 25.5 °F 86% 30.49 in 10.0 mi North 4.6 mph - N/A   Clear
3:15 AM 28.9 °F - 25.2 °F 86% 30.51 in 10.0 mi Calm Calm - N/A   Clear
3:35 AM 27.7 °F - 24.3 °F 87% 30.51 in 10.0 mi Calm Calm - N/A   Clear
3:55 AM 28.0 °F - 24.8 °F 88% 30.51 in 10.0 mi Calm Calm - N/A   Clear
4:15 AM 28.0 °F - 24.6 °F 87% 30.50 in 10.0 mi Calm Calm - N/A   Clear
4:35 AM 28.2 °F - 24.4 °F 86% 30.49 in 10.0 mi Calm Calm - N/A   Clear
4:55 AM 27.5 °F - 24.3 °F 88% 30.49 in 10.0 mi Calm Calm - N/A   Clear
5:15 AM 28.0 °F - 24.6 °F 87% 30.48 in 10.0 mi Calm Calm - N/A   Clear
5:35 AM 27.5 °F - 23.9 °F 86% 30.48 in 10.0 mi Calm Calm - N/A   Clear
5:55 AM 28.4 °F - 24.8 °F 86% 30.47 in 10.0 mi Calm Calm - N/A   Clear
6:15 AM 28.4 °F - 24.8 °F 86% 30.48 in 10.0 mi Calm Calm - N/A   Clear
6:35 AM 29.3 °F 24.3 °F 25.7 °F 86% 30.48 in 10.0 mi ENE 4.6 mph - N/A   Clear
6:55 AM 32.0 °F 27.5 °F 27.1 °F 82% 30.48 in 10.0 mi East 4.6 mph - N/A   Clear
7:15 AM 33.1 °F 27.7 °F 27.0 °F 78% 30.48 in 10.0 mi East 5.8 mph - N/A   Clear
7:35 AM 33.1 °F 27.7 °F 26.4 °F 77% 30.47 in 10.0 mi East 5.8 mph - N/A   Clear
7:55 AM 32.9 °F 27.5 °F 26.1 °F 76% 30.47 in 10.0 mi East 5.8 mph - N/A   Clear
8:15 AM 32.9 °F 27.5 °F 25.7 °F 75% 30.46 in 10.0 mi East 5.8 mph - N/A   Clear
8:35 AM 33.4 °F 27.3 °F 25.7 °F 73% 30.46 in 10.0 mi East 6.9 mph - N/A   Clear
8:55 AM 33.4 °F 28.1 °F 25.9 °F 74% 30.46 in 10.0 mi East 5.8 mph - N/A   Clear
9:15 AM 33.8 °F 27.7 °F 26.1 °F 73% 30.45 in 10.0 mi East 6.9 mph - N/A   Clear
9:35 AM 34.3 °F 28.4 °F 26.1 °F 72% 30.45 in 10.0 mi East 6.9 mph - N/A   Clear
9:55 AM 34.7 °F 28.8 °F 26.2 °F 71% 30.44 in 10.0 mi East 6.9 mph - N/A   Clear
10:15 AM 35.2 °F 29.5 °F 26.2 °F 70% 30.44 in 10.0 mi ESE 6.9 mph - N/A   Clear
10:35 AM 35.8 °F 28.8 °F 26.1 °F 68% 30.43 in 10.0 mi East 9.2 mph - N/A   Clear
10:55 AM 36.5 °F 29.7 °F 25.9 °F 65% 30.43 in 10.0 mi East 9.2 mph - N/A   Clear
11:15 AM 37.0 °F 31.6 °F 26.4 °F 65% 30.43 in 10.0 mi East 6.9 mph - N/A   Clear
11:35 AM 37.4 °F 31.4 °F 26.4 °F 65% 30.42 in 10.0 mi East 8.1 mph - N/A   Scattered Clouds
11:55 AM 37.6 °F 31.6 °F 26.6 °F 65% 30.40 in 10.0 mi East 8.1 mph - N/A   Mostly Cloudy
12:15 PM 37.8 °F 31.8 °F 26.6 °F 64% 30.39 in 10.0 mi ESE 8.1 mph - N/A   Mostly Cloudy
12:35 PM 38.3 °F 31.4 °F 26.8 °F 63% 30.37 in 10.0 mi East 10.4 mph - N/A   Overcast
12:55 PM 38.5 °F 32.7 °F 26.8 °F 63% 30.36 in 10.0 mi ESE 8.1 mph - N/A Rain Light Rain
1:15 PM 39.7 °F 31.5 °F 25.2 °F 56% 30.35 in 10.0 mi ESE 15.0 mph 18.4 mph N/A   Overcast
1:35 PM 39.7 °F 33.2 °F 25.7 °F 57% 30.33 in 10.0 mi ESE 10.4 mph - N/A   Overcast
1:55 PM 39.4 °F 31.8 °F 27.1 °F 62% 30.31 in 10.0 mi ESE 12.7 mph - N/A Rain Light Rain
2:15 PM 39.2 °F 31.6 °F 28.0 °F 64% 30.29 in 10.0 mi ESE 12.7 mph - N/A   Light Drizzle
2:35 PM 39.6 °F 32.5 °F 28.0 °F 63% 30.28 in 10.0 mi ESE 11.5 mph - N/A   Overcast
2:55 PM 39.9 °F 32.5 °F 28.4 °F 63% 30.27 in 10.0 mi ESE 12.7 mph - N/A   Overcast
3:15 PM 40.1 °F 32.7 °F 28.4 °F 63% 30.26 in 10.0 mi ESE 12.7 mph - N/A   Overcast
3:35 PM 40.1 °F 33.2 °F 28.9 °F 64% 30.26 in 10.0 mi ESE 11.5 mph 17.3 mph N/A   Overcast
3:55 PM 40.1 °F 32.7 °F 29.3 °F 65% 30.26 in 10.0 mi SE 12.7 mph 17.3 mph N/A   Overcast
4:15 PM 39.9 °F 33.4 °F 29.8 °F 67% 30.26 in 10.0 mi SE 10.4 mph - N/A   Overcast
4:35 PM 39.6 °F 32.5 °F 30.9 °F 71% 30.25 in 7.0 mi SE 11.5 mph 17.3 mph N/A Rain Rain
4:55 PM 38.5 °F 31.6 °F 32.4 °F 79% 30.24 in 4.0 mi SE 10.4 mph 17.3 mph 0.04 in Rain Light Rain
5:15 PM 38.5 °F 31.6 °F 33.4 °F 82% 30.23 in 7.0 mi SE 10.4 mph - 0.01 in Rain Rain
5:35 PM 38.3 °F 30.1 °F 34.0 °F 84% 30.22 in 5.0 mi ESE 13.8 mph - 0.04 in Rain Light Rain
5:55 PM 38.3 °F 30.5 °F 34.2 °F 85% 30.20 in 7.0 mi ESE 12.7 mph - 0.04 in Rain Light Rain
6:15 PM 38.5 °F 31.6 °F 34.9 °F 87% 30.19 in 10.0 mi ESE 10.4 mph - N/A   Overcast
6:35 PM 39.0 °F 32.3 °F 34.5 °F 84% 30.19 in 10.0 mi ESE 10.4 mph - 0.01 in   Overcast
6:55 PM 39.0 °F 32.3 °F 34.5 °F 84% 30.17 in 10.0 mi ESE 10.4 mph - 0.01 in   Overcast
7:15 PM 38.8 °F 32.6 °F 34.7 °F 85% 30.16 in 7.0 mi ESE 9.2 mph - N/A Rain Light Rain
7:35 PM 39.2 °F 33.0 °F 35.1 °F 85% 30.15 in 7.0 mi ESE 9.2 mph - N/A   Overcast
7:55 PM 39.4 °F 31.8 °F 35.6 °F 86% 30.14 in 7.0 mi ESE 12.7 mph - N/A Rain Rain
8:15 PM 39.9 °F 33.4 °F 36.3 °F 87% 30.12 in 7.0 mi ESE 10.4 mph - N/A Rain Light Rain
8:35 PM 40.1 °F 34.1 °F 36.5 °F 87% 30.11 in 7.0 mi SE 9.2 mph - N/A   Overcast
8:55 PM 40.5 °F 34.6 °F 37.2 °F 88% 30.10 in 4.0 mi ESE 9.2 mph - N/A Rain Rain
9:15 PM 41.0 °F 35.2 °F 37.6 °F 88% 30.09 in 4.0 mi ESE 9.2 mph - N/A   Overcast
9:35 PM 42.3 °F 36.3 °F 39.2 °F 89% 30.08 in 7.0 mi SE 10.4 mph - N/A   Overcast
9:55 PM 43.0 °F 37.2 °F 39.6 °F 88% 30.08 in 7.0 mi SE 10.4 mph - N/A   Overcast
10:15 PM 43.0 °F 36.8 °F 39.4 °F 87% 30.08 in 7.0 mi SE 11.5 mph - N/A   Overcast
10:35 PM 43.2 °F 37.4 °F 39.4 °F 86% 30.07 in 10.0 mi SSE 10.4 mph - N/A   Overcast
10:55 PM 43.7 °F 38.6 °F 39.7 °F 86% 30.07 in 10.0 mi SSE 9.2 mph - N/A   Overcast
11:15 PM 43.7 °F 39.1 °F 39.7 °F 86% 30.05 in 10.0 mi SE 8.1 mph - N/A   Overcast
11:35 PM 44.2 °F 38.4 °F 40.1 °F 85% 30.03 in 10.0 mi SE 11.5 mph - N/A   Overcast
11:55 PM 44.6 °F 39.2 °F 40.1 °F 84% 30.02 in 10.0 mi SE 10.4 mph - N/A   Scattered Clouds